Regional Weather Roundup
Issued by NWS

Home | Current Version | Previous Version | Graphics & Text | Print | Product List | Glossary Off
Versions: 1 2 3 4 5 6 7 8 9 10 11 12 13 14 15 16 17 18 19 20 21 22 23 24 25 26 27 28 29 30 31 32 33 34 35 36 37 38 39 40 41 42 43 44 45 46 47 48 49 50

000
ASUS43 KIND 201459
RWRIN

WEATHER ROUNDUP FOR INDIANA
NATIONAL WEATHER SERVICE INDIANAPOLIS IN
1000 AM EST MON NOV 20 2017

NOTE: "FAIR" INDICATES FEW OR NO CLOUDS BELOW 12,000 FEET WITH NO
SIGNIFICANT WEATHER AND/OR OBSTRUCTIONS TO VISIBILITY.

* - STATION DOES NOT REPORT WEATHER SUCH AS PRECIPITATION OR FOG.

+ - STATION NOT QUALITY CONTROLLED BY THE NATIONAL WEATHER SERVICE.
    USE DATA WITH CAUTION...ESPECIALLY DEWPOINT AND RELATIVE
    HUMIDITY OBSERVATIONS.

INZ001>003-010>013-019-020-201600-
NORTHWEST INDIANA

CITY           SKY/WX    TMP DP  RH WIND       PRES   REMARKS
GARY /AIRPORT/ MOSUNNY   41  25  52 SW12G23   29.98R
KNOX *+        SUNNY     36  27  69 SW16      30.02S WCI  26
LA PORTE +     SUNNY     35  26  69 SW13G20   30.00F WCI  27
MONTICELLO +   SUNNY     36  24  59 S16G23    30.05F WCI  27

$$

LMZ046-743>745-201600-
SOUTHERN LAKE MICHIGAN

STATION/POSITION TIME  TEMP    WIND        PRES    WAVE
                       AIR SEA DIR/SP/G            HT
                 (UTC) (F)     (DEG/KT/KT) (MB)    (FT)
BURNS HARBOR     1420   38     190/ 19     1015.6R
MICHIGAN CITY    1430   37     160/ 18/ 21   N/A

$$

INZ004-005-014>016-021>024-201600-
NORTH CENTRAL INDIANA

CITY           SKY/WX    TMP DP  RH WIND       PRES   REMARKS
ELKHART        SUNNY     36  25  64 SW14      30.00F WCI  27
GOSHEN         SUNNY     37  23  56 SW20G26   30.01F WCI  27
PERU/GRISSOM   SUNNY     37  25  62 SW17      30.06F WCI  27
SOUTH BEND     SUNNY     37  26  64 SW17G25   29.99F WCI  27
WARSAW +       SUNNY     36  25  64 SW8G16    30.04F WCI  29

$$

INZ006>009-017-018-025>027-201600-
NORTHEAST INDIANA

CITY           SKY/WX    TMP DP  RH WIND       PRES   REMARKS
AUBURN +       SUNNY     36  23  60 SW12G20   30.05F WCI  27
FORT WAYNE     MOSUNNY   37  26  64 SW16      30.08F WCI  28
KENDALLVILLE + SUNNY     35  24  64 SW16      30.04F WCI  25

$$

INZ028-029-035-036-043>045-051>053-201600-
WEST CENTRAL INDIANA

CITY           SKY/WX    TMP DP  RH WIND       PRES   REMARKS
CRAWFORDSVL +  CLOUDY    33  24  70 S14         N/A  WCI  24
LAFAYETTE      CLOUDY    36  24  62 SW12G18   30.10F WCI  28
TERRE HAUTE    CLOUDY    38  24  57 S13       30.17R WCI  30

$$

INZ030>032-037>040-046>048-054>057-064-065-201600-
CENTRAL INDIANA

CITY           SKY/WX    TMP DP  RH WIND       PRES   REMARKS
ANDERSON       SUNNY    N/A N/A N/A SW12      30.15S
FRANKFORT +    CLOUDY    37  27  67 SW14G20   30.11F WCI  29
GREENWOOD *+   CLOUDY    37  26  65 S8        30.18R WCI  31
INDIANAPOLIS   CLOUDY    36  23  59 S16       30.16S WCI  26
-EAGLE CREEK   CLOUDY    35  23  61 S7        30.15R WCI  29
KOKOMO +       CLOUDY    37  24  59 S16G22    30.10F WCI  28
MT COMFORT *+  CLOUDY    34  28  80 S10       30.16R WCI  26
SHELBYVILLE    CLOUDY    34  23  64 S13G20    30.18S WCI  25

$$

INZ033-034-041-042-049-050-058-059-201600-
EAST CENTRAL INDIANA

CITY           SKY/WX    TMP DP  RH WIND       PRES   REMARKS
MUNCIE         SUNNY     37  22  54 SW9G18    30.13F WCI  30
RICHMOND +     CLOUDY    32  27  80 S9        30.18S WCI  24

$$

INZ060-061-067>069-081>083-085>088-201600-
SOUTHWEST INDIANA

CITY           SKY/WX    TMP DP  RH WIND       PRES   REMARKS
EVANSVILLE     SUNNY     38  26  62 S8        30.24F WCI  32
HUNTINGBURG +  SUNNY     35  26  69 S8        30.25R WCI  29

$$

INZ062-063-066-070>080-084-089>092-201600-
SOUTH CENTRAL AND SOUTHEAST INDIANA

CITY           SKY/WX    TMP DP  RH WIND       PRES   REMARKS
BLOOMINGTON    CLOUDY    36  22  56 SW12      30.18S WCI  28
MADISON *+     CLOUDY    36  25  64 S7        30.24S WCI  30
SEYMOUR +      CLOUDY    36  27  69 S7        30.23R WCI  30

$$





USA.gov is the U.S. government's official web portal to all federal, state and local government web resources and services.